Tracking 30986 objects as of 10-Jul-2025
HD Live streaming from Space Station
objects crossing your sky now

HYPSO-2

Track HYPSO-2 now!
10-day predictions


NORAD ID: 60531
Int'l Code: 2024-149BR
Perigee: 585.1 km
Apogee: 587.9 km
Inclination: 97.7 °
Period: 96.3 minutes
Semi major axis: 6957 km
RCS: Unknown
Launch date: August 16, 2024
Source: Norway (NOR)
Launch site: AIR FORCE WESTERN TEST RANGE (AFWTR)
Your satellite tracking list
Your tracking list is empty




NASA's NSSDC Master Catalog

Two Line Element Set (TLE):
1 60531U 24149BR  25190.61524953  .00002046  00000-0  18773-3 0  9998
2 60531  97.7160 266.8697 0002010  86.0249 274.1202 14.95963636 48780
Source of the keplerian elements: AFSPC